THORAD AGENA D DEB

Satellite information

Favourite Embed

Satellite Type and Status

DEBRISIN ORBIT

Key statistics

Satellite THORAD AGENA D DEB at a glance.

Uptime

20338

Days in orbit

Revolutions

≈ 14.3

Per day

Orbit

SSO

Sun Synchronous Orbit

Inclination

99.7

Latest

Satellite identification and parameters

Extended collection of information and parameters for THORAD AGENA D DEB.

Object identification

Identified? True

Debris? True

Object name: THORAD AGENA D DEB

International designator: 1970-025FJ

Object number (NORAD): 4912

Object ID (CCSDS): 4912

Country: UNITED STATES OF AMERICA (US)

Current information (Y/N): Y

RCS size: SMALL

Orbital parameters

Period: 101.022 minutes

Inclination: 99.7154 deg

SMA: 7185.191 km

Apoapsis: 834.486 km

Periapsis: 779.627 km

RAAN: 82.4042 deg

Eccentricy: 0.00381751

Argument of periapsis: 111.1049 deg

Mean anomaly: 249.4214 deg

Mean motion: 14.25427873 rev/day

Mean motion (dot): 0.00004997 rev/day2

B* drag term: 0.0021218117 1/REarth

Two-line elements (TLE)

Creation date: Dec. 12, 2025, 10:14 a.m.

Reference frame: TEME

Reference center: EARTH

Epoch: Dec. 12, 2025, 5 a.m. UTC

TLE line 0: 0 THORAD AGENA D DEB

TLE line 1: 1 04912U 70025FJ 25346.20891034 .00004997 00000-0 21218-2 0 9992

TLE line 2: 2 04912 99.7154 82.4042 0038175 111.1049 249.4214 14.25427873827448

Live tracking on map

Real-time ground track for satellite THORAD AGENA D DEB.

In-orbit conjunctions

A list of the most updated potential collisions computed for object THORAD AGENA D DEB.

Target Orbit TCA Probability of collision Miss distance Type
SL-16 DEB LEO 2025-05-04 19:08:07 0.0002335334 68.0 (m) DEBRIS
SL-12 R/B(2) LEO 2025-02-09 14:47:45 0.01695686 6.0 (m) ROCKET BODY
CZ-4C R/B SSO 2025-01-31 05:26:53 0.0002398893 26.0 (m) ROCKET BODY

Associated space launch

Meteorological research and development satellite

THORAD AGENA D DEB was lifted into orbit during the mission ‘Thorad SLV-2G Agena D | Nimbus 4’, on board a Thorad SLV-2G Agena D space rocket.

The launch took place on April 8, 1970, 8:17 a.m. from Space Launch Complex 2E.

For more information about the launch, click the button.

Launch to space Thorad SLV-2G Agena D | Nimbus 4
Thorad SLV-2G Agena D | Nimbus 4

Agency: N/A

Status: Launch Successful

Launch date: April 8, 1970, 8:17 a.m. UTC

Rocket: Thorad SLV-2G Agena D

Launch pad: Space Launch Complex 2E

Location: Vandenberg SFB, CA, USA

...

Latest news about this satellite

There are no fresh news available about this satellite. Check back as we update our databases every day.


Newsletter sign-up

Weekly statistics, charts and insights to help you stay on top of the space industry.